FALCON 9 R/B (43489 NORAD) Tracking and Keplerian Element Data

This shows tracking and keplerian element data for the satellite.

Feedback or suggestion? Click here.




ElementValue
Catalog43489
NameFALCON 9 R/B
Epoch Orbit36
Epoch Day182.96327987
Epoch Year2018
RAAN157.6522
Inclination26.1085
Eccentricity0.8140755
Argument of Perigee177.1799
Mean Anonmoly196.1988
Mean Motion1.28110442
Decay Rate-3.25E-06
L11 43489U 18049B 18182.96327987 -.00000325 00000-0 15424-3 0 9991
L22 43489 26.1085 157.6522 8140755 177.1799 196.1988 1.28110442 365



Live tracking and technical data element details for FALCON 9 R/B (NORAD 43489). FALCON 9 R/B can be tracked NOW for your location showing map with azimuth and elevation plus other details from your city location.







IsCatalogInMostPopularTable: catalog: 43489, numindb: 373
Update: records affected: 1



GetName: 43489 FALCON 9 R/B

Hit Count: updated at: Sat, 17 May 2025 09:23:43 GMT